Weather History for KOPF - June, 2013

Change the Weather History Date:

Monday, June 17, 2013

  Actual Average (KMIA) Record (KMIA)
Temperature  
Mean Temperature 84 °F 83 °F  
Max Temperature 91 °F 90 °F 95 °F (2010)
Min Temperature 79 °F 76 °F 66 °F (1938)
Degree Days  
Heating Degree Days 0 0  
Month to date heating degree days 0  
Since 1 June heating degree days 0  
Since 1 July heating degree days 128  
Cooling Degree Days 20 18  
Month to date cooling degree days 297  
Year to date cooling degree days 1653  
Since 1 June cooling degree days 297  
Growing Degree Days 34 (Base 50)    
Moisture  
Dew Point 74 °F    
Average Humidity 70    
Maximum Humidity 82    
Minimum Humidity 55    
Precipitation  
Precipitation 0.00 in 0.34 in 4.75 in (1906)
Month to date precipitation 5.32  
Year to date precipitation 20.67  
Snow  
Snow 0.00 in - - ()
Month to date snowfall  
Since 1 June snowfall  
Since 1 July snowfall  
Snow Depth -    
Sea Level Pressure  
Sea Level Pressure 30.06 in    
Wind  
Wind Speed 7 mph (ESE)    
Max Wind Speed 13 mph    
Max Gust Speed 21 mph    
Visibility 10 miles    
Events      
T = Trace of Precipitation, MM = Missing Value Source: NWS Daily Summary

Daily Weather History Graph

Daily Weather History Graph

Search for Another Location

Airport or City:

Trip Planner

Search our weather history database for the weather conditions in past years. The results will help you decide how hot, cold, wet, or windy it might be!

Date:

Astronomy

Jun. 17, 2013 Rise Set
Actual Time 6:29 AM EDT 8:14 PM EDT
Civil Twilight 6:03 AM EDT 8:40 PM EDT
Nautical Twilight 5:32 AM EDT 9:12 PM EDT
Astronomical Twilight 4:59 AM EDT 9:45 PM EDT
Moon 2:19 PM EDT (6/17) 1:32 AM EDT (6/17)
Length of Visible Light 14h 37m
Length of Day
13h 45m
First Quarter, 60% of the Moon is Illuminated
Jun 17
First Quarter
Jun 23
Full
Jun 30
Last Quarter
Jul 8
New
Jul 15
First Quarter

Hourly Weather History & Observations

Time (EDT) Temp. Heat Index Dew Point Humidity Pressure Visibility Wind Dir Wind Speed Gust Speed Precip Events Conditions
12:53 AM 82.0 °F 87.9 °F 73.9 °F 76% 30.09 in 10.0 mi SE 8.1 mph - N/A   Clear
1:53 AM 82.0 °F 88.6 °F 75.0 °F 79% 30.06 in 10.0 mi SE 8.1 mph - N/A   Partly Cloudy
2:53 AM 81.0 °F 85.8 °F 73.0 °F 77% 30.05 in 10.0 mi SSE 6.9 mph - N/A   Clear
3:53 AM 80.1 °F 84.2 °F 73.0 °F 79% 30.04 in 10.0 mi Calm Calm - N/A   Clear
4:53 AM 79.0 °F - 73.0 °F 82% 30.03 in 10.0 mi Calm Calm - N/A   Partly Cloudy
5:53 AM 79.0 °F - 73.0 °F 82% 30.04 in 10.0 mi ESE 3.5 mph - N/A   Partly Cloudy
6:53 AM 80.1 °F 84.5 °F 73.9 °F 81% 30.05 in 10.0 mi Calm Calm - N/A   Partly Cloudy
7:53 AM 82.9 °F 90.2 °F 75.0 °F 77% 30.07 in 10.0 mi ENE 3.5 mph - N/A   Partly Cloudy
8:53 AM 84.9 °F 92.1 °F 73.9 °F 69% 30.07 in 10.0 mi ESE 6.9 mph - N/A   Partly Cloudy
9:53 AM 87.1 °F 94.5 °F 73.0 °F 63% 30.07 in 10.0 mi ESE 8.1 mph - N/A   Partly Cloudy
10:53 AM 88.0 °F 95.6 °F 73.0 °F 61% 30.06 in 10.0 mi East 10.4 mph - N/A   Partly Cloudy
12:53 PM 90.0 °F 97.9 °F 73.0 °F 57% 30.08 in 10.0 mi SE 10.4 mph - N/A   Partly Cloudy
1:53 PM 89.1 °F 95.0 °F 71.1 °F 55% 30.07 in 10.0 mi ESE 9.2 mph - N/A   Scattered Clouds
2:53 PM 90.0 °F 97.9 °F 73.0 °F 57% 30.06 in 10.0 mi ESE 11.5 mph 18.4 mph N/A   Partly Cloudy
3:53 PM 90.0 °F 97.9 °F 73.0 °F 57% 30.05 in 10.0 mi SE 11.5 mph 20.7 mph N/A   Scattered Clouds
4:53 PM 87.1 °F 92.8 °F 71.1 °F 59% 30.04 in 10.0 mi SE 10.4 mph - N/A   Clear
5:53 PM 88.0 °F 96.5 °F 73.9 °F 63% 30.04 in 10.0 mi East 9.2 mph - N/A   Clear
6:53 PM 86.0 °F 93.0 °F 73.0 °F 65% 30.03 in 10.0 mi SE 12.7 mph - N/A   Clear
7:53 PM 84.0 °F 91.2 °F 73.9 °F 72% 30.04 in 10.0 mi SE 12.7 mph - N/A   Clear
8:53 PM 82.9 °F 89.4 °F 73.9 °F 74% 30.05 in 10.0 mi SE 10.4 mph - N/A   Clear
9:53 PM 82.9 °F 90.2 °F 75.0 °F 77% 30.07 in 10.0 mi SE 8.1 mph - N/A   Clear
10:53 PM 82.0 °F 88.6 °F 75.0 °F 79% 30.09 in 10.0 mi ESE 4.6 mph - N/A   Clear
11:53 PM 82.0 °F 88.6 °F 75.0 °F 79% 30.08 in 10.0 mi ESE 4.6 mph - N/A   Partly Cloudy